Tracking 20719 objects as of 26-May-2020
HD Live streaming from Space Station
objects crossing your sky now

FLOCK 2K 24

Track FLOCK 2K 24 now!
10-day predictions
FLOCK 2K 24 is classified as:


NORAD ID: 42857
Int'l Code: 2017-042AJ
Perigee: 436.5 km
Apogee: 450.4 km
Inclination: 96.9 °
Period: 93.3 minutes
Semi major axis: 6814 km
RCS: Unknown
Launch date: July 14, 2017
Source: United States (US)
Launch site: TYURATAM MISSILE AND SPACE COMPLEX (TTMTR)
aabbcc
Your satellite tracking list
Your tracking list is empty




NASA's NSSDC Master Catalog

Two Line Element Set (TLE):
1 42857U 17042AJ  20146.22145318 +.00005353 +00000-0 +12176-3 0  9995
2 42857 096.8933 015.9105 0010157 059.4546 300.7704 15.43323071160573
Source of the keplerian elements: AFSPC